Main page
METAR-TAF:

METAR-TAF

Airports :

Llano Municipal Airport

Llano, Texas, United States

latitude: 30-47-01N, longitude: 098-39-43W, elevation: 1102 ft

Current weather observation

The report was made 37 minutes ago, at 11:50 UTC
Wind 7 mph from the North
Temperature 45°F
Humidity 93%
Pressure 30.32 in. Hg
Visibility: 4 miles
Few clouds at a height of 100 ft
Overcast at a height of 1100 ft

METAR: KAQO 201150Z AUTO 35006KT 4SM FEW001 OVC011 07/06 A3032 RMK AO2 PWINO

Time: 06:27 (12:27 UTC)


TAF: missing

Weather observations and forecasts of more than 4000 airports (METAR and TAF reports).

The available stations are represented by yellow and red dots on the map.

Hover mouse over dot to see the name of the station.

Then click to see weather observations and forecasts.

To change the map : click on the green buttons with a black cross to zoom in, on the green button with a dash to zoom out, or on the green arrows for adjacent maps.


METAR-TAF: